Wind_Speed
34 33 32 30 29 27 27 25 23 22 22 23 23 23 23 22 22 22 21 20 19 18 18 17 17 18 18 18 18 19 20 19 20 22 21 20 20 20 20 20 17 13 18 28 32 31 33 34 32 31 30 29 30 30 29 28 29 30 30 30 31 30 29
34 33 31 30 29 28 27 26 24 24 24 24 24 24 23 23 23 23 22 21 20 19 18 17 18 19 19 19 20 22 22 22 22 23 23 22 20 21 21 20 19 18 16 21 29 32 34 35 32 31 32 30 30 31 31 30 30 31 31 31 30 29 29
33 33 31 30 29 28 27 26 25 25 25 25 25 24 24 23 23 24 23 22 21 20 19 19 19 20 20 20 22 23 23 23 25 25 24 23 21 22 23 21 21 22 18 18 26 31 32 33 32 32 33 32 32 32 31 31 30 29 28 29 28 28 28
33 32 31 31 30 29 28 27 26 26 26 26 26 25 25 24 24 24 24 23 22 21 20 20 20 21 21 22 23 24 24 24 25 26 24 23 23 22 23 23 21 23 25 22 24 29 31 32 33 33 33 32 32 32 31 29 28 27 27 27 27 26 27
33 32 31 31 30 29 28 28 27 27 27 27 26 26 25 25 25 25 25 24 23 22 21 21 22 22 23 24 24 24 24 25 26 26 23 22 23 22 23 24 23 24 27 27 26 28 31 32 32 33 32 29 29 30 30 28 26 26 26 26 27 26 26
32 32 31 31 30 30 29 28 27 27 27 27 26 25 25 25 25 26 25 25 25 24 23 23 23 24 25 25 25 25 25 27 27 25 23 22 22 24 23 23 23 24 25 27 27 28 30 31 30 29 28 26 25 27 28 28 28 26 25 24 24 25 25
31 31 31 30 30 30 30 28 27 27 27 26 26 26 25 25 25 25 25 25 25 24 23 23 24 25 26 26 27 27 26 27 26 24 23 23 23 23 22 21 22 24 24 25 26 26 28 28 26 26 27 26 25 25 25 26 25 23 22 22 21 22 23
32 31 30 29 30 30 29 28 27 27 26 26 26 26 26 26 25 25 25 24 24 23 23 24 23 24 26 27 26 26 25 25 24 23 23 23 21 21 21 22 22 23 23 23 24 24 25 25 25 26 25 24 23 21 19 20 21 21 22 23 22 22 22
31 31 31 30 30 29 28 27 28 28 27 27 27 26 26 25 25 24 24 23 23 22 22 22 23 24 25 25 24 23 23 22 21 20 20 19 19 20 21 22 22 22 22 21 19 20 23 21 21 23 22 20 19 17 18 22 23 23 24 25 24 24 23
30 31 31 31 31 30 28 28 28 28 27 27 27 27 26 25 24 24 23 23 22 21 21 21 23 24 23 22 21 21 21 20 20 20 20 19 20 22 23 22 23 23 22 18 14 17 20 15 13 19 21 20 21 21 22 24 24 23 24 21 20 21 21
31 32 32 32 32 30 28 28 29 27 25 24 25 26 27 26 25 23 22 21 20 20 21 21 21 21 20 20 22 22 21 20 20 19 19 20 21 24 24 24 25 24 23 19 16 18 20 14 13 21 24 22 23 23 22 22 22 23 21 15 10 12 14
32 32 32 32 32 30 29 29 28 26 24 24 24 24 25 25 25 23 21 19 20 20 20 20 20 20 20 21 22 22 21 21 21 21 20 21 23 26 26 25 25 24 23 22 20 19 20 18 18 21 21 18 19 22 22 21 21 21 20 16 11 10 13
32 32 32 31 32 32 31 30 28 25 23 24 24 23 23 24 24 23 20 19 19 19 20 19 20 21 21 21 21 20 20 20 22 24 23 23 24 27 27 24 23 23 23 24 23 21 23 25 23 22 23 22 23 24 22 20 19 20 21 19 17 16 19
33 32 32 31 32 33 31 29 28 26 24 24 24 24 23 23 23 22 20 19 19 20 20 19 20 21 21 20 19 19 20 21 22 23 23 24 25 27 26 24 24 25 25 24 24 25 29 30 28 26 29 31 29 26 23 21 20 21 21 22 23 25 27
33 33 32 31 32 32 31 30 28 26 25 25 24 24 23 23 23 22 21 20 20 20 20 19 19 20 20 20 19 19 19 19 19 20 22 24 24 25 26 26 26 27 26 25 24 26 28 29 28 28 30 29 26 24 24 24 24 22 23 25 25 25 27
33 33 32 32 32 33 33 32 28 25 25 26 24 24 24 23 23 22 22 21 20 20 20 19 19 20 19 19 18 17 16 16 17 19 21 22 23 25 28 29 27 25 23 23 23 24 26 26 27 27 28 26 24 24 25 26 24 22 22 20 15 13 17
32 32 32 32 33 34 35 35 30 26 25 26 25 24 24 23 23 22 21 21 20 18 18 18 17 18 18 18 16 15 15 15 16 18 19 20 22 25 28 30 29 25 21 20 21 22 23 23 24 25 24 24 24 23 24 23 19 17 16 13 8 6 9
30 30 31 33 34 34 35 35 33 27 25 25 25 25 25 24 23 22 21 20 18 17 17 17 16 15 16 16 15 14 14 14 15 17 18 18 20 22 25 28 27 24 23 25 25 22 21 21 21 22 22 22 21 21 21 18 14 14 13 9 7 6 7
27 28 30 32 33 32 31 33 34 29 25 25 25 25 25 24 22 21 21 19 18 17 16 16 16 15 14 14 14 13 13 14 15 16 16 16 16 19 22 23 21 21 25 28 27 24 24 23 21 21 21 21 20 19 18 16 14 14 13 10 9 8 6
25 26 26 28 30 30 29 31 33 30 26 25 25 25 24 24 23 22 20 19 17 16 15 16 16 15 14 14 13 12 12 13 14 14 14 14 15 17 19 19 19 20 21 23 23 24 24 23 22 21 20 20 20 19 17 16 14 13 13 13 12 11 8
24 24 24 25 26 28 29 30 31 30 27 25 25 25 24 24 24 22 20 18 17 16 16 15 15 16 16 14 12 10 11 12 12 11 11 13 14 15 16 17 19 19 18 19 21 22 22 22 22 22 20 19 19 19 18 18 16 15 15 15 14 14 11
22 22 22 23 24 26 28 28 29 29 28 25 24 24 23 23 24 22 20 18 17 17 16 15 14 16 16 12 10 10 10 10 9 8 9 10 12 13 14 14 15 16 17 18 19 20 21 22 23 23 22 20 20 21 22 20 18 17 16 15 17 19 16
21 20 20 21 22 24 26 27 27 28 27 25 23 22 22 22 21 19 18 18 18 17 15 14 15 15 12 9 8 8 8 7 7 7 7 9 11 12 12 12 14 16 18 18 18 19 20 22 23 24 24 22 23 24 24 22 20 17 15 13 15 19 21
20 19 19 19 20 22 24 26 27 27 26 25 23 22 21 20 18 17 17 18 17 16 15 15 13 10 7 6 6 5 5 5 5 6 7 8 11 12 12 13 16 18 18 18 19 19 20 22 24 24 24 25 25 25 24 23 21 17 13 10 10 13 16
19 19 18 18 19 21 23 25 25 26 25 23 22 21 20 19 18 16 16 17 17 16 15 12 8 5 5 4 3 4 5 3 4 7 8 9 11 13 14 15 17 19 19 19 19 19 19 22 24 25 25 25 24 23 24 25 24 20 17 13 9 6 8
18 18 18 18 19 20 21 22 23 24 25 23 21 20 19 18 17 17 15 15 14 13 10 7 5 5 4 1 1 3 4 2 5 7 8 10 13 14 15 15 17 18 19 19 19 19 20 22 24 24 24 24 22 22 24 26 26 23 21 17 12 7 5
18 18 17 17 17 18 20 21 22 22 24 24 23 21 20 18 18 18 16 15 13 12 10 9 7 5 3 2 1 2 1 4 6 7 10 12 14 15 16 15 15 16 18 18 18 19 20 22 23 23 24 24 23 23 25 26 26 24 22 20 15 9 9
19 19 19 18 17 18 17 19 21 23 25 27 27 24 21 20 19 20 19 18 16 13 11 9 7 6 4 3 3 2 3 6 8 10 12 14 15 15 16 16 17 18 20 20 20 20 21 23 23 23 24 24 22 22 24 25 26 25 23 21 17 11 9
22 23 23 21 21 20 17 18 23 27 28 29 28 27 25 24 23 23 22 20 17 14 11 9 7 6 4 3 3 4 6 9 10 11 13 15 16 16 17 18 20 21 22 22 22 22 23 23 23 23 24 24 22 23 23 22 24 25 24 21 18 12 10
26 26 25 24 24 24 23 23 25 25 24 24 25 25 24 24 24 24 22 19 15 12 11 11 8 6 4 4 4 5 8 10 10 12 13 15 15 16 17 18 20 21 21 21 22 22 22 23 23 23 24 24 22 23 23 21 21 25 25 21 16 12 12
26 24 24 25 25 25 25 24 21 19 21 22 22 22 21 21 21 22 20 18 16 14 14 13 10 7 6 4 5 6 8 9 9 11 12 13 14 15 16 18 19 20 20 21 21 22 23 23 23 23 23 23 22 21 22 21 20 23 26 22 16 12 12
24 23 23 24 24 24 25 23 20 19 22 23 22 22 22 20 20 20 18 19 18 16 15 14 12 10 8 6 6 7 8 8 8 8 10 12 13 14 15 17 18 18 19 20 21 22 23 23 24 23 22 22 22 21 21 22 21 22 23 21 16 13 14
23 23 22 23 23 23 24 24 21 21 23 23 23 23 23 21 20 20 20 21 20 17 16 15 13 11 10 8 7 7 8 8 7 7 8 11 11 12 14 15 16 16 19 20 21 21 22 23 24 23 22 23 23 21 20 21 21 21 21 19 15 12 15
20 21 22 22 22 22 23 23 23 22 23 24 25 25 24 22 21 20 19 20 19 19 18 17 14 13 12 10 8 8 8 8 6 6 7 9 10 11 12 13 15 16 18 20 21 21 22 23 24 24 23 23 23 22 21 20 21 21 20 19 16 12 14
16 18 19 20 21 22 22 23 23 23 24 25 26 25 25 23 21 20 19 18 18 18 19 18 16 15 13 11 10 9 8 8 6 5 6 8 10 11 11 12 14 16 17 19 21 22 22 23 24 24 23 22 22 23 22 21 21 21 19 19 18 14 15
11 15 17 18 19 20 22 23 23 23 24 26 27 27 28 26 22 20 20 19 18 18 18 17 16 15 14 12 11 9 9 8 6 5 5 7 9 10 10 11 12 15 16 18 20 21 21 22 23 24 24 23 22 23 22 21 21 21 20 20 19 16 16
Wind_Direction
213 213 213 214 214 213 212 213 214 215 217 220 223 226 228 228 229 229 230 232 234 234 236 242 249 254 257 262 267 271 273 273 275 275 273 276 277 272 267 270 274 277 284 287 288 289 294 300 302 300 300 299 298 298 296 294 294 294 294 295 295 295 295
214 214 214 215 214 213 212 213 213 213 215 218 221 224 227 229 229 230 231 234 235 236 239 246 251 253 258 264 269 272 273 273 274 273 273 276 276 271 269 270 276 282 284 288 292 293 295 299 299 298 298 298 295 295 295 292 292 293 291 292 292 291 292
215 215 214 214 214 213 214 214 212 213 215 218 220 222 226 228 229 231 233 236 239 241 243 246 249 253 258 264 269 271 271 271 272 271 272 276 277 273 272 272 276 281 280 283 292 294 296 298 298 295 296 298 295 294 293 291 290 291 290 290 291 289 289
218 216 214 214 214 214 214 214 212 213 216 218 220 221 224 228 230 232 233 237 241 244 244 245 248 254 260 264 268 270 269 268 269 270 272 278 279 276 275 277 277 279 280 281 288 292 292 294 295 295 296 298 297 295 293 292 291 291 292 291 290 289 289
219 217 214 213 214 214 214 215 214 214 217 219 220 221 225 229 231 234 236 239 243 247 249 249 251 256 261 265 267 268 269 270 272 274 275 278 281 281 280 280 280 279 279 277 281 287 291 293 293 294 296 298 299 300 298 296 294 293 294 293 290 288 288
220 219 218 216 215 215 216 216 216 217 218 219 220 222 226 230 233 237 240 242 246 251 253 253 255 260 263 264 266 265 267 273 276 277 279 279 283 285 282 278 279 279 278 276 279 285 291 294 294 294 298 301 302 303 302 300 299 296 295 293 288 286 286
222 222 222 220 219 218 218 218 218 219 220 220 222 223 226 230 234 238 243 246 248 251 254 259 262 264 265 263 262 263 268 276 281 281 282 281 281 281 278 277 280 280 279 280 282 285 287 291 296 297 299 303 303 301 299 299 301 300 299 297 291 287 289
221 222 223 224 223 222 221 220 220 220 221 221 223 224 226 229 233 238 243 246 248 251 257 262 263 263 264 262 263 270 276 281 284 283 280 278 276 276 276 280 284 281 279 282 284 287 291 295 298 298 297 302 304 301 298 298 298 297 299 300 295 291 292
220 221 222 224 226 226 223 222 222 221 221 222 223 224 226 229 232 237 242 245 250 255 257 258 260 262 265 267 271 277 279 281 282 280 279 282 282 281 281 283 285 283 282 284 286 292 297 297 295 296 298 301 302 302 304 304 300 294 294 296 293 290 289
219 219 221 222 223 225 224 224 225 223 223 223 224 225 226 228 231 234 239 246 251 255 254 255 261 265 268 272 276 277 277 279 281 281 282 284 283 284 284 284 286 286 284 285 291 296 297 295 291 293 296 298 300 302 303 303 298 292 290 292 292 290 287
219 219 221 222 222 222 222 224 226 224 222 221 223 226 227 227 229 231 236 244 248 251 254 258 262 266 270 276 279 282 283 282 281 282 282 282 283 285 286 285 285 288 292 295 296 294 293 291 290 293 294 295 297 298 297 295 294 291 288 285 284 285 285
219 220 221 222 223 223 222 224 226 223 221 221 221 224 226 226 227 228 233 240 244 248 255 260 265 270 275 280 283 285 286 284 285 287 285 284 287 288 287 286 285 290 300 302 297 293 292 289 289 291 290 290 293 292 288 286 285 286 285 282 279 279 281
219 220 222 223 223 224 224 226 226 222 221 223 223 222 223 225 225 226 230 237 243 250 257 262 268 273 277 281 285 286 287 288 290 291 289 290 293 293 292 290 289 293 298 297 293 289 285 285 285 284 284 289 291 285 280 279 276 276 278 278 276 276 278
218 219 221 222 223 224 224 225 226 224 221 223 224 224 223 223 223 226 231 237 244 252 260 264 269 275 279 283 286 290 292 292 292 292 295 299 299 297 296 295 297 301 301 296 291 283 280 286 288 285 288 293 291 282 274 271 267 265 266 267 269 273 278
217 219 220 222 223 223 224 225 225 222 222 223 224 224 224 223 224 228 232 239 246 253 260 266 270 275 280 283 287 293 295 293 292 294 298 299 296 296 298 299 302 305 304 299 294 287 287 293 296 293 294 297 297 294 289 280 272 269 267 266 267 272 276
217 220 221 222 223 223 224 226 224 220 221 223 223 224 224 223 225 228 232 239 245 251 259 267 272 275 280 284 289 295 295 290 290 294 294 293 295 299 301 302 306 309 304 298 297 297 297 300 300 299 299 300 303 308 306 296 286 281 275 269 266 267 271
219 220 221 222 222 222 224 226 225 220 219 222 223 223 223 223 224 228 232 238 243 250 259 266 271 276 281 285 291 297 296 294 293 294 294 295 300 304 303 307 316 319 311 303 305 307 306 306 306 304 304 305 307 310 310 304 292 282 278 271 263 266 270
219 220 221 222 223 222 223 226 226 220 217 221 222 221 222 223 223 227 233 238 242 249 258 264 270 278 282 285 291 296 296 297 297 296 299 302 307 309 307 312 320 321 314 311 314 317 321 322 318 312 309 310 310 311 314 310 299 293 289 275 257 269 283
219 222 223 224 224 223 222 225 226 221 217 221 222 221 223 222 221 226 233 236 242 248 254 263 271 277 281 286 293 298 298 299 300 301 304 309 311 308 307 313 320 321 318 320 323 329 334 335 332 324 318 316 314 314 314 306 297 294 288 277 267 265 269
219 222 224 224 225 224 222 223 225 222 218 220 222 221 222 221 220 225 230 233 240 246 252 264 273 276 281 288 294 299 300 300 303 306 308 311 310 304 305 315 322 322 325 328 331 334 336 336 336 332 327 325 323 321 316 307 300 291 279 277 276 265 253
218 221 224 225 225 225 223 222 224 222 219 220 222 221 220 220 221 223 228 233 237 244 253 265 273 276 282 290 295 300 303 305 308 313 313 312 310 309 315 324 325 327 335 338 336 338 339 339 340 338 336 335 332 330 326 317 310 299 283 273 266 259 256
217 218 222 224 224 224 224 223 223 223 220 219 221 221 220 221 224 226 228 230 234 243 254 264 271 277 286 293 295 302 309 311 315 322 320 316 319 326 331 332 332 340 347 345 342 344 344 344 345 342 340 339 338 339 337 328 321 313 298 277 262 254 250
214 214 217 220 221 222 223 223 221 222 221 219 219 220 220 222 224 224 225 228 235 245 255 262 270 280 289 294 296 306 317 322 329 334 332 333 342 347 347 346 351 357 355 350 351 352 349 348 348 343 339 339 340 342 341 336 331 328 318 296 271 257 251
211 210 212 215 218 219 221 221 219 218 218 217 218 220 222 222 220 217 220 228 236 244 253 262 272 283 292 295 302 319 323 323 346 1 357 358 5 5 4 4 5 4 2 359 359 357 350 348 347 343 338 338 339 342 346 347 347 348 345 328 293 269 260
209 209 211 212 215 216 217 218 217 215 215 215 217 220 220 219 220 219 219 224 230 241 255 264 269 272 283 295 312 316 306 320 18 24 17 17 20 18 16 13 10 9 8 5 0 355 349 347 347 344 342 341 342 346 353 358 359 3 6 1 342 307 282
210 210 212 212 213 214 213 213 213 214 214 212 212 215 217 218 221 222 218 218 226 236 244 243 235 243 261 295 332 301 307 18 45 36 33 35 31 27 23 18 13 13 12 6 358 354 349 347 348 348 349 351 352 354 360 3 2 2 6 9 10 14 13
214 212 212 213 212 211 210 211 211 210 210 208 206 208 213 217 219 218 212 209 218 226 224 215 216 226 231 206 211 263 19 64 52 43 46 44 37 31 28 23 20 19 17 10 2 357 353 353 354 356 357 358 358 359 4 7 6 4 5 10 16 27 32
214 215 214 211 210 208 206 209 211 209 207 206 204 204 207 210 212 213 208 205 214 226 226 216 211 210 215 219 203 163 105 75 60 52 48 44 39 33 28 27 27 25 23 18 10 4 0 359 0 2 2 1 1 3 6 9 11 11 10 15 24 29 17
217 218 216 212 209 205 201 206 213 213 210 209 206 205 206 206 206 208 207 206 215 222 211 194 195 202 200 188 163 121 78 63 58 53 48 44 37 28 25 27 27 24 21 19 15 9 5 2 2 3 5 4 3 4 6 10 13 13 14 19 23 23 11
226 224 219 216 214 210 209 214 217 213 206 204 204 204 205 204 204 206 206 203 207 210 197 183 183 187 182 165 135 94 68 57 48 42 43 42 33 24 22 25 26 24 24 23 20 15 10 7 5 5 5 5 3 2 5 10 13 16 20 20 16 13 11
232 229 221 217 217 216 216 218 218 207 197 196 196 197 197 195 197 202 201 193 189 190 188 183 178 173 173 163 127 94 75 63 49 39 39 39 32 25 22 23 24 25 27 27 24 19 16 12 10 7 6 7 4 1 5 10 13 17 20 19 16 16 10
232 230 224 218 214 213 213 214 211 202 195 192 190 190 189 186 187 189 185 182 185 185 183 184 181 174 174 168 139 112 90 76 60 44 42 41 32 23 20 22 24 27 32 32 28 22 19 16 13 10 9 10 9 6 7 10 13 15 16 13 14 18 14
234 230 229 223 214 210 209 208 204 198 193 188 185 185 183 180 181 180 175 177 185 184 179 182 183 177 176 173 153 129 106 90 74 54 51 51 38 23 20 24 29 34 39 39 34 28 24 19 16 14 12 12 14 14 13 13 13 14 15 12 8 6 8
237 230 228 226 218 210 206 203 199 195 191 186 183 181 176 173 174 174 174 182 190 186 178 179 181 179 179 177 164 145 122 105 91 68 61 61 50 33 25 28 34 39 42 41 38 35 29 24 21 20 16 13 14 16 17 17 16 15 16 14 7 358 1
238 227 224 224 218 210 205 200 196 193 188 183 180 175 168 164 165 168 173 184 193 189 183 181 179 178 179 179 171 156 137 121 107 83 68 65 55 39 27 29 36 41 44 44 41 38 33 28 27 25 22 19 18 17 16 16 14 15 17 16 11 3 0
235 225 221 220 215 208 202 197 194 192 186 181 177 172 164 162 166 171 175 182 188 189 187 186 182 179 179 180 175 163 147 134 119 99 82 73 61 44 30 29 36 42 46 47 45 42 37 34 31 28 26 26 24 22 20 17 14 16 18 18 17 14 8
Height
706 707 708 708 708 707 708 709 709 710 712 714 715 716 718 718 720 720 720 721 721 722 722 722 723 723 723 724 723 723 722 721 720 719 718 719 717 716 717 714 713 708 690 678 681 681 675 674 673 669 667 664 660 657 656 654 652 649 646 644 643 641 639
702 704 705 706 706 706 706 706 706 708 709 711 712 714 715 716 717 717 717 718 718 719 719 719 720 720 720 721 721 720 719 717 717 716 714 715 714 712 713 712 709 707 696 680 675 678 675 672 671 666 663 662 657 653 652 650 648 646 643 641 640 638 636
700 700 702 703 704 703 704 703 704 705 706 708 709 711 712 713 714 715 715 715 715 716 717 717 717 717 718 718 717 715 715 714 712 713 711 710 711 709 708 709 707 704 698 685 675 674 673 669 667 663 660 658 655 651 648 645 643 642 640 638 636 635 633
698 698 699 700 701 701 701 701 701 702 704 705 706 707 709 710 711 712 712 712 713 713 714 714 714 714 715 715 714 712 710 710 709 708 708 707 706 706 704 704 704 701 697 689 677 671 670 667 663 659 656 654 651 648 645 642 640 638 637 635 633 631 629
697 697 697 696 698 698 698 699 699 700 701 702 703 704 705 707 709 709 710 710 710 711 711 711 711 711 712 711 710 709 707 706 705 704 704 704 702 703 701 700 700 698 694 689 679 670 667 664 660 656 653 652 648 644 641 639 637 635 633 631 629 628 626
696 696 695 694 695 695 696 696 697 698 699 700 701 702 703 705 706 707 707 707 707 708 708 708 708 708 709 708 706 705 703 702 702 701 701 700 699 699 698 697 695 693 690 686 679 671 665 661 658 653 649 649 648 643 639 635 633 631 630 628 626 624 622
694 695 695 694 694 693 693 694 695 696 698 698 699 700 701 702 703 704 704 705 705 705 705 705 706 705 705 704 703 701 700 699 698 698 697 697 696 695 694 693 691 689 686 682 676 671 664 658 655 652 648 646 646 643 640 636 630 627 626 626 623 621 619
690 692 693 694 693 692 692 693 693 694 695 696 697 698 699 700 701 701 702 702 702 702 702 702 702 702 701 700 699 698 697 696 695 694 693 693 693 692 691 689 687 685 682 678 673 668 662 658 654 650 647 645 643 641 638 636 632 626 624 623 621 619 618
685 687 689 691 692 692 692 691 691 692 693 694 695 695 696 697 698 699 699 700 699 699 700 699 699 698 697 697 697 696 695 694 693 692 691 690 690 689 688 686 684 681 678 674 670 665 661 657 653 649 646 643 642 639 636 635 633 627 623 621 619 617 616
681 682 684 686 687 688 690 689 689 689 690 692 692 692 693 694 695 696 696 697 697 697 696 696 695 695 695 694 694 693 692 691 690 690 689 688 687 686 685 683 680 677 674 670 667 664 660 656 651 647 645 642 640 639 636 634 632 627 622 620 617 614 613
678 678 679 681 682 684 685 686 687 687 688 690 690 690 690 691 691 693 694 695 695 694 693 692 692 691 691 691 690 689 689 688 687 687 686 685 684 683 682 680 677 673 670 667 665 662 659 655 649 646 644 641 638 637 635 633 631 626 621 618 615 611 609
675 676 676 678 679 680 682 682 683 685 686 687 688 688 687 687 688 689 690 692 692 691 690 689 688 688 688 688 687 686 685 684 684 683 683 682 681 679 678 676 674 671 668 665 662 659 657 653 649 644 641 639 637 634 632 630 628 625 621 617 613 609 606
671 673 674 674 676 677 678 679 680 682 683 684 685 686 685 684 685 686 687 688 688 688 688 686 686 685 684 684 684 683 682 681 680 680 679 678 677 674 673 672 671 669 667 664 661 657 653 651 647 642 637 637 635 631 628 625 623 622 620 616 611 607 604
667 668 670 671 673 674 675 675 676 678 680 681 682 683 683 682 682 683 684 684 685 685 685 684 683 682 681 681 680 680 680 679 678 676 675 674 673 670 668 667 666 664 663 660 658 654 649 646 644 640 634 633 632 628 624 621 618 617 615 612 609 605 602
662 663 665 667 669 671 671 671 672 674 676 678 679 680 680 679 679 680 680 681 681 682 682 682 681 680 679 678 677 677 677 676 675 674 672 671 669 666 665 664 662 661 658 656 654 651 646 643 641 637 632 629 627 624 621 618 615 612 610 608 605 602 599
658 660 662 664 665 667 667 668 669 671 672 674 675 676 677 676 676 676 677 677 678 679 679 679 679 678 677 676 674 674 674 674 673 672 670 668 666 664 662 660 659 657 655 653 651 648 644 641 638 634 630 627 624 621 618 616 612 610 608 605 601 598 596
654 656 658 660 661 662 663 664 665 667 668 670 672 673 673 673 673 673 674 674 675 676 676 677 677 676 675 674 672 671 672 672 671 670 668 666 664 662 659 656 654 653 652 650 648 645 642 638 634 631 628 625 622 619 617 614 609 607 606 603 599 596 593
651 653 654 656 657 658 658 660 662 663 665 667 669 670 670 670 670 671 671 671 672 673 674 674 674 675 674 672 670 670 670 670 669 667 665 663 662 660 657 653 651 649 647 645 643 640 637 634 631 628 625 622 620 617 615 612 608 606 604 601 597 595 592
648 650 651 652 654 655 656 656 658 660 662 663 665 667 667 667 667 668 668 669 670 670 671 671 671 672 672 671 669 668 668 668 667 665 663 661 660 658 655 652 650 647 644 641 638 635 633 630 627 625 622 620 617 615 613 610 607 605 603 600 597 595 593
645 646 648 650 651 653 653 653 654 656 658 660 662 664 664 664 664 665 666 667 667 668 668 668 669 670 670 669 668 667 666 666 665 663 661 660 659 657 654 651 649 647 644 640 637 634 631 628 625 623 620 617 614 612 610 608 605 603 602 599 597 594 593
641 642 645 647 648 650 650 650 651 653 655 657 659 661 661 661 661 662 664 664 665 665 665 665 666 667 668 667 666 665 665 664 663 662 660 658 657 655 653 650 647 645 643 640 636 633 630 627 623 620 617 615 612 609 607 605 602 600 598 597 595 593 592
637 639 641 643 645 646 647 648 649 650 652 654 656 658 659 658 659 660 662 662 663 663 663 663 664 665 666 666 665 664 663 662 661 660 658 657 656 654 651 649 647 644 641 638 635 632 629 625 622 618 615 613 610 607 604 602 599 596 594 593 592 591 590
633 635 637 639 641 642 644 646 646 647 648 651 653 655 656 657 657 659 660 660 660 661 662 662 663 664 664 664 663 662 662 661 660 659 657 656 654 652 650 648 646 643 640 637 634 631 627 624 621 617 614 611 608 605 602 599 596 593 591 589 587 587 587
630 631 633 634 636 638 640 642 644 645 646 647 650 652 654 655 656 657 658 658 658 659 660 660 661 662 663 663 662 661 660 659 658 657 656 655 652 650 649 647 644 641 638 635 632 630 627 625 621 618 614 611 607 605 601 597 594 591 589 586 584 583 583
625 627 628 630 632 634 636 638 640 642 643 645 647 649 651 653 654 655 656 656 657 658 659 659 660 661 661 661 660 659 659 658 656 656 655 653 651 649 648 646 643 640 637 634 632 630 628 625 622 619 615 612 608 605 601 596 593 590 587 585 583 582 581
622 623 624 625 627 630 633 635 637 639 641 642 644 646 648 651 652 654 655 655 655 657 658 658 659 660 660 659 658 658 657 656 655 654 653 651 649 648 648 646 643 640 637 635 633 631 629 626 623 620 616 612 608 605 601 597 594 590 587 585 583 582 581
619 620 620 621 624 627 629 632 634 636 637 639 641 643 645 648 650 652 653 653 653 655 656 656 657 658 658 657 657 657 656 655 653 653 652 650 649 649 648 646 643 641 638 636 634 632 629 627 624 620 616 612 609 605 602 598 595 592 588 586 584 582 581
614 615 616 618 621 624 626 628 630 631 632 634 636 639 642 645 647 649 650 651 652 654 655 655 656 656 656 656 656 656 655 654 653 653 651 649 649 649 648 646 643 641 638 636 634 631 629 626 623 620 617 614 611 607 604 600 598 594 591 588 585 583 582
609 610 612 614 616 619 622 623 624 625 628 630 633 635 638 641 644 646 648 649 651 652 653 654 654 655 655 655 655 654 653 652 652 652 651 649 649 649 648 645 643 640 637 635 633 631 629 626 623 621 618 615 612 609 606 604 601 598 594 591 587 585 584
606 607 609 611 612 614 617 618 620 623 626 629 631 634 636 639 642 644 646 648 650 651 651 652 653 653 653 653 654 653 652 651 651 651 650 649 650 650 648 646 643 641 638 636 634 632 630 627 624 622 619 617 614 611 608 606 604 601 598 594 590 588 587
604 605 606 607 609 611 614 616 619 621 624 626 628 631 634 637 640 643 645 647 648 648 650 650 651 651 652 653 652 652 651 651 652 652 651 650 650 650 649 647 644 642 639 637 635 633 631 628 626 624 621 619 617 614 611 608 605 602 600 597 594 592 591
601 602 603 604 606 608 611 614 617 619 621 623 626 629 632 635 638 641 644 645 646 647 648 649 649 650 651 652 652 651 650 650 651 652 651 650 650 651 650 648 646 643 641 638 636 634 632 630 628 626 624 621 619 616 613 610 607 604 602 600 597 596 594
598 599 600 602 603 605 608 611 614 616 618 621 623 626 630 634 637 640 642 643 644 645 646 647 647 648 650 651 651 650 650 650 651 652 652 651 651 651 651 649 647 645 642 639 638 636 634 632 630 627 625 623 621 618 616 613 610 607 605 602 600 598 597
595 596 598 599 601 603 606 608 611 613 616 618 621 624 628 632 636 639 641 641 642 643 644 645 646 647 649 650 650 650 649 649 651 652 652 651 651 652 652 650 648 646 643 641 639 638 636 634 632 629 627 624 622 620 618 616 613 610 608 605 603 601 600
593 594 595 597 599 601 604 607 609 611 614 616 619 622 626 630 634 637 639 639 640 641 642 643 644 646 647 649 649 649 649 649 650 651 652 651 651 652 652 651 649 647 645 643 641 639 638 636 634 632 630 627 625 622 620 618 616 614 612 610 608 605 603
592 592 594 596 598 600 603 605 608 610 612 614 617 620 624 627 630 633 635 637 638 640 641 642 643 644 646 647 648 648 648 648 649 651 651 651 651 652 652 651 650 648 646 644 642 641 640 638 636 634 632 629 627 625 623 621 620 617 615 613 611 609 606